Location: LDNL
(36.4545°S, 141.6685°E)
Time: 07:41:56
(UTC+11:00)

ISS - Pass Details

Date: 10 December 2022
Orbit: 412 x 423 km, 51.6° (Epoch: 07 February)

Event Time Altitude Azimuth Distance (km) Brightness Sun altitude
Rises 04:31:32 0° 218° (SW) 2,457 0.3 -16.3°
Reaches altitude 10° 04:34:30 10° 191° (S) 1,582 -0.4 -15.8°
Maximum altitude 04:36:29 14° 157° (SSE) 1,345 -0.2 -15.6°
Drops below altitude 10° 04:38:28 10° 123° (ESE) 1,575 0.5 -15.3°
Sets 04:41:24 0° 97° (E) 2,437 1.0 -14.8°
